This is the latest recevied weather packets stored in our database for station/object YO2KCB-10. If no packets are shown the sender has not sent any weather packets the latest 10 day(s).
| Time | Temp. | Humidity | Pressure | Rain* | Wind** | Luminosity | Snow |
|---|---|---|---|---|---|---|---|
| 1777495707 | 13.33° C | 25% | 1019.6 hPa | - | - | - | - |
| 1777494507 | 13.89° C | 25% | 1019.5 hPa | - | - | - | - |
| 1777493307 | 13.89° C | 25% | 1019.5 hPa | - | - | - | - |
| 1777492107 | 14.44° C | 25% | 1019.4 hPa | - | - | - | - |
| 1777490907 | 14.44° C | 25% | 1019.3 hPa | - | - | - | - |
| 1777489706 | 15° C | 25% | 1019.1 hPa | - | - | - | - |
| 1777488506 | 15° C | 24% | 1018.9 hPa | - | - | - | - |
| 1777487306 | 15.56° C | 24% | 1018.8 hPa | - | - | - | - |
| 1777486106 | 16.11° C | 24% | 1018.6 hPa | - | - | - | - |
| 1777484906 | 16.11° C | 24% | 1018.4 hPa | - | - | - | - |
| 1777483705 | 16.67° C | 24% | 1018.2 hPa | - | - | - | - |
| 1777482505 | 17.22° C | 24% | 1018.1 hPa | - | - | - | - |
| 1777481305 | 17.78° C | 25% | 1017.9 hPa | - | - | - | - |
| 1777480105 | 18.33° C | 24% | 1017.9 hPa | - | - | - | - |
| 1777478905 | 18.89° C | 24% | 1017.8 hPa | - | - | - | - |
| 1777477705 | 19.44° C | 24% | 1017.8 hPa | - | - | - | - |
| 1777476504 | 20° C | 24% | 1017.8 hPa | - | - | - | - |
| 1777475304 | 21.11° C | 24% | 1017.8 hPa | - | - | - | - |
| 1777474104 | 21.11° C | 24% | 1017.8 hPa | - | - | - | - |
| 1777472904 | 21.11° C | 24% | 1017.9 hPa | - | - | - | - |
| 1777471704 | 21.11° C | 24% | 1017.9 hPa | - | - | - | - |
| 1777470504 | 21.67° C | 24% | 1017.9 hPa | - | - | - | - |
| 1777469303 | 22.22° C | 23% | 1017.9 hPa | - | - | - | - |
| 1777468103 | 21.67° C | 24% | 1018 hPa | - | - | - | - |
| 1777466903 | 21.67° C | 24% | 1018.2 hPa | - | - | - | - |
* Rain since midnight (hover to see other rain measurements)
** Current wind speed in m/s (hover to see current wind gust speed)